User: anonymous   Login
Location: Unspecified
(0.0000°N, 0.0000°E)
Time: 18:13:39
(UTC+00:00)
Language:

STARLINK-3699 - Orbit

View from above orbital plane
View from above orbital plane
View from above satellite
View from above satellite

Ground track
Ground track

The orbit is defined by the following mean orbital elements,

1 51966U          26145.42747814 +.00000000 +00000-0 +71829-4 0 00006
2 51966  53.1611  40.0746 0001355  85.6283 274.4873 15.31698542    02
Epoch (UTC): 25 May 2026 10:15:34
Eccentricity: 0.0001355
inclination: 53.1611°
perigee height: 470 km
apogee height: 472 km
right ascension of ascending node: 40.0746°
argument of perigee: 85.6283°
revolutions per day: 15.31698542
mean anomaly at epoch: 274.4873°

The dashed part of the orbit path shows where the satellite is in the earth's shadow,  

DLR